[[{"header":{"parameterUnit":"m.s-1","parameterCategory":1,"la1":30.2991,"la2":30.254,"lo1":-89.0895,"lo2":-89.0444,"dy":0.0017,"dx":0.0017,"nx":28,"ny":28,"refTime":"2024-06-18T03:00:00:Z","depth":0,"parameterNumber":2,"parameterNumberName":"U-component_of_WINDS"},"data":[0,0,0,0,0,0,0,0,0,0,0,0,0,0,0,0,0,0,0,0,0,0,0,0,0,0,0,0,0,0,0,0,0,0,0,0,0,0,0,0,0,0,0,0,0,0,0,0,0,0,0,0,0,0,0,0,0,0,-10.4345,-10.4346,0,-10.4411,-10.4412,-10.4413,-10.4237,-10.4231,-10.4226,-10.4221,-10.4285,-10.4291,-10.4298,0,0,0,0,0,0,0,0,0,0,0,0,0,-10.4064,-10.4071,-10.4345,-10.4346,-10.4347,-10.4411,-10.4412,-10.4413,-10.4238,-10.4231,-10.4224,-10.4218,-10.4283,-10.4291,-10.4299,0,0,0,0,0,0,0,0,0,0,0,0,0,-10.4164,-10.4073,-10.4345,-10.4267,-10.4261,-10.4411,-10.4412,-10.4413,-10.4239,-10.4231,-10.4223,-10.4215,-10.428,-10.429,-10.43,-10.4527,0,0,-10.4331,-10.4335,0,0,0,0,0,0,0,0,-10.4159,-10.4175,-10.4278,-10.4273,-10.4266,-10.4307,-10.4336,-10.4451,-10.4241,-10.4247,-10.4221,-10.4211,-10.4299,-10.4307,-10.4337,-10.453,-10.4533,-10.4332,-10.4338,-10.4343,-10.4345,0,0,0,0,0,0,0,-10.4152,-10.4171,-10.4371,-10.428,-10.4273,-10.4228,-10.4233,-10.4357,-10.4318,-10.4246,-10.4234,-10.4244,-10.4294,-10.4328,-10.4337,-10.4534,-10.4332,-10.4341,-10.4347,-10.4351,-10.4916,-10.4924,0,0,0,0,0,0,-10.4156,-10.4166,-10.4369,-10.4373,-10.4191,-10.424,-10.4246,-10.4302,-10.4316,-10.4311,-10.4251,-10.4236,-10.4314,-10.4326,-10.4339,-10.4604,-10.4342,-10.4352,-10.4358,-10.4907,-10.4917,-10.4927,0,0,0,0,0,0,-10.415,-10.4175,-10.4366,-10.4266,-10.4287,-10.4254,-10.4319,-10.4308,-10.4341,-10.432,-10.4312,-10.4293,-10.4308,-10.4325,-10.4482,-10.4604,-10.4357,-10.4366,-10.4896,-10.491,-10.4922,-10.5137,0,0,0,0,0,0,-10.4143,-10.4175,-10.4261,-10.427,-10.4293,-10.4509,-10.4326,-10.4315,-10.436,-10.4341,-10.4357,-10.4352,-10.4303,-10.4467,-10.4492,-10.4613,-10.4374,-10.4885,-10.4902,-10.4918,-10.5119,-10.5156,-10.5188,0,0,0,0,0,-10.4134,-10.4318,-10.4266,-10.4292,-10.4401,-10.4517,-10.453,-10.4471,-10.4371,-10.4457,-10.4443,-10.4351,-10.4588,-10.4485,-10.4511,-10.4637,-10.4877,-10.4897,-10.4917,-10.5103,-10.5149,-10.5187,0,0,0,0,0,0,-10.4322,-10.4318,-10.426,-10.4453,-10.4487,-10.4487,-10.4593,-10.4521,-10.4583,-10.4562,-10.4485,-10.4491,-10.4662,-10.4666,-10.4551,-10.4858,-10.4715,-10.4741,-10.4848,-10.4891,-10.4925,-10.4918,-10.4382,0,0,0,0,0,-10.4388,-10.4483,-10.4473,-10.4645,-10.4665,-10.4627,-10.4675,-10.4627,-10.4658,-10.4671,-10.4669,-10.4702,-10.4783,-10.4838,-10.4912,-10.5121,-10.512,-10.522,-10.5255,-10.5284,-10.5305,-10.5414,-10.5458,-10.4993,-10.4992,-10.4992,0,0,-10.4521,-10.453,-10.4594,-10.4683,-10.4703,-10.4802,-10.464,-10.4752,-10.4824,-10.4688,-10.4835,-10.4836,-10.4867,-10.5051,-10.5132,-10.5059,-10.5435,-10.5309,-10.5332,-10.5338,-10.5439,-10.5484,-10.5523,-10.5006,-10.5004,-10.5002,0,0,-10.4813,-10.4832,-10.4975,-10.5,-10.5034,-10.5008,-10.5043,-10.5055,-10.505,-10.5198,-10.5097,-10.5183,-10.5325,-10.5351,-10.5383,-10.569,-10.5607,-10.5717,-10.5895,-10.6002,-10.6039,-10.6071,-10.6177,-10.6217,-10.574,-10.574,-10.5741,0,-10.4974,-10.512,-10.5058,-10.5177,-10.5218,-10.5103,-10.5247,-10.5274,-10.533,-10.536,-10.528,-10.5456,-10.5469,-10.5657,-10.5732,-10.5763,-10.5799,-10.5712,-10.6039,-10.6071,-10.61,-10.62,-10.6241,-10.5753,-10.5752,-10.575,-10.5749,0,-10.5315,-10.5419,-10.5531,-10.5589,-10.5644,-10.5775,-10.5732,-10.5794,-10.5744,-10.5726,-10.5878,-10.5891,-10.5964,-10.6007,-10.5957,-10.6188,-10.6141,-10.6052,-10.5906,-10.6158,-10.6251,-10.6289,-10.5771,-10.5767,-10.5763,-10.576,0,0,-10.5723,-10.5749,-10.579,-10.5815,-10.5846,-10.5923,-10.6051,-10.6124,-10.6178,-10.6222,-10.6324,-10.645,-10.6367,-10.6404,-10.6357,-10.6452,-10.6691,-10.635,-10.635,-10.641,-10.6943,-10.7007,-10.7052,-10.6639,-10.6646,-10.6652,-10.6939,0,-10.6009,-10.6226,-10.6176,-10.639,-10.6483,-10.6377,-10.6487,-10.6517,-10.6506,-10.6583,-10.657,-10.6658,-10.6544,-10.6566,-10.6655,-10.6643,-10.6796,-10.6623,-10.6731,-10.6735,-10.6721,-10.7101,-10.7169,-10.7439,-10.6975,-10.6981,-10.6986,0,-10.637,-10.643,-10.6654,-10.6669,-10.6707,-10.6807,-10.687,-10.6946,-10.6979,-10.6963,-10.7007,-10.6942,-10.7066,-10.6924,-10.7093,-10.6976,-10.7018,-10.7019,-10.7028,-10.7032,-10.6872,-10.7111,-10.7524,-10.7563,-10.7043,-10.7039,-10.7034,0,-10.6641,-10.6778,-10.6928,-10.6954,-10.6977,-10.7049,-10.7062,-10.7087,-10.7134,-10.7191,-10.722,-10.7291,-10.7328,-10.7384,-10.7339,-10.7241,-10.7515,-10.7369,-10.7503,-10.7505,-10.7561,-10.7557,-10.7982,-10.7597,-10.7597,-10.7596,-10.7595,0,-10.6963,-10.7103,-10.705,-10.7143,-10.7297,-10.7238,-10.7392,-10.7392,-10.7416,-10.7505,-10.742,-10.7505,-10.7444,-10.7525,-10.7492,-10.7635,-10.7654,-10.7643,-10.7632,-10.7648,-10.7649,-10.7671,-10.7649,-10.7607,-10.7604,-10.7602,-10.76,0,-10.7288,-10.726,-10.7416,-10.7427,-10.7433,-10.7546,-10.7554,-10.7639,-10.7623,-10.7738,-10.7762,-10.7736,-10.7827,-10.779,-10.7886,-10.7863,-10.8046,-10.8012,-10.8035,-10.8025,-10.8159,-10.8146,-10.8608,-10.8665,-10.8249,-10.8253,-10.8256,0,-10.7493,-10.7598,-10.7621,-10.7676,-10.7695,-10.7785,-10.7834,-10.7781,-10.7836,-10.7882,-10.7962,-10.8046,-10.8109,-10.826,-10.8248,-10.8322,-10.8286,-10.8444,-10.8296,-10.8309,-10.8283,-10.8276,-10.8285,-10.8471,-10.8476,-10.848,-10.8483,0,-10.7858,-10.7839,-10.7913,-10.7984,-10.8046,-10.8098,-10.8143,-10.8193,-10.8143,-10.8208,-10.8301,-10.8351,-10.845,-10.8533,-10.8599,-10.861,-10.8539,-10.8531,-10.8565,-10.858,-10.8587,-10.8581,-10.8111,-10.8519,-10.8515,-10.8513,-10.8511,-10.8509,-10.8126,-10.8214,-10.8244,-10.833,-10.836,-10.8404,-10.8485,-10.848,-10.8557,-10.8633,-10.8599,-10.8706,-10.8736,-10.8817,-10.884,-10.8922,-10.8859,-10.891,-10.8922,-10.8934,-10.895,-10.8579,-10.8934,-10.8933,-10.8932,-10.8931,-10.893,0,-10.8482,-10.8497,-10.8578,-10.8644,-10.8712,-10.8642,-10.8689,-10.8749,-10.8845,-10.8881,-10.8946,-10.9053,-10.9134,-10.9132,-10.9207,-10.9273,-10.9242,-10.9294,-10.9286,-10.9289,-10.9003,-10.8964,-10.9318,-10.9318,-10.9318,-10.9318,-10.9318,-10.9318,-10.8675,-10.8821,-10.8806,-10.8965,-10.8979,-10.9083,-10.9116,-10.9156,-10.9184,-10.9308,-10.9375,-10.9374,-10.9394,-10.9471,-10.9542,-10.9539,-10.9569,-10.9633,-10.9618,-10.9348,-10.931,-10.9273,-10.9235,-10.9641,-10.9642,-10.9896,-10.9899,-10.9901]},{"header":{"parameterUnit":"m.s-1","parameterCategory":1,"la1":30.2991,"la2":30.254,"lo1":-89.0895,"lo2":-89.0444,"dy":0.0017,"dx":0.0017,"nx":28,"ny":28,"refTime":"2024-06-18T03:00:00:Z","depth":0,"parameterNumber":3,"parameterNumberName":"V-component_of_WINDS"},"data":[0,0,0,0,0,0,0,0,0,0,0,0,0,0,0,0,0,0,0,0,0,0,0,0,0,0,0,0,0,0,0,0,0,0,0,0,0,0,0,0,0,0,0,0,0,0,0,0,0,0,0,0,0,0,0,0,0,0,1.4662,1.4663,0,1.4735,1.4736,1.4737,1.4777,1.4777,1.4777,1.4777,1.4847,1.4849,1.485,0,0,0,0,0,0,0,0,0,0,0,0,0,1.4552,1.4554,1.4662,1.4663,1.4664,1.4735,1.4736,1.4737,1.4777,1.4777,1.4777,1.4777,1.4846,1.4848,1.4851,0,0,0,0,0,0,0,0,0,0,0,0,0,1.461,1.4555,1.4661,1.4692,1.4696,1.4735,1.4736,1.4737,1.4776,1.4777,1.4777,1.4777,1.4846,1.4848,1.4851,1.4864,0,0,1.4859,1.486,0,0,0,0,0,0,0,0,1.4607,1.4614,1.4687,1.469,1.4694,1.4747,1.4723,1.4779,1.4776,1.4746,1.4777,1.4777,1.4813,1.4819,1.4832,1.4867,1.487,1.4859,1.4861,1.4862,1.4863,0,0,0,0,0,0,0,1.4602,1.4611,1.469,1.4688,1.4692,1.4701,1.4709,1.4734,1.4777,1.4748,1.4751,1.476,1.4815,1.4829,1.4834,1.4871,1.4859,1.4861,1.4863,1.4864,1.4921,1.4921,0,0,0,0,0,0,1.4594,1.4607,1.4688,1.4693,1.465,1.4703,1.4712,1.473,1.4777,1.4785,1.476,1.4761,1.4824,1.4831,1.4836,1.4855,1.4862,1.4864,1.4866,1.4921,1.4921,1.4921,0,0,0,0,0,0,1.4592,1.4601,1.4685,1.4651,1.4662,1.4704,1.4724,1.4731,1.4745,1.4786,1.4793,1.4766,1.4825,1.4833,1.4857,1.4858,1.4866,1.4868,1.4921,1.4921,1.4921,1.4892,0,0,0,0,0,0,1.4588,1.46,1.4606,1.4651,1.4664,1.4706,1.4724,1.4732,1.475,1.4753,1.4794,1.4801,1.4826,1.4853,1.486,1.4862,1.487,1.4921,1.4921,1.4921,1.4893,1.4891,1.4889,0,0,0,0,0,1.4584,1.4594,1.4606,1.4616,1.4673,1.4706,1.4713,1.4743,1.475,1.4756,1.4782,1.4799,1.4857,1.4855,1.4863,1.4866,1.4921,1.4921,1.4921,1.4894,1.4891,1.4889,0,0,0,0,0,0,1.4546,1.46,1.4615,1.4639,1.4668,1.4713,1.4721,1.4739,1.4765,1.4767,1.4801,1.481,1.4831,1.4851,1.4848,1.4881,1.4891,1.4892,1.4867,1.4865,1.4863,1.4858,1.4872,0,0,0,0,0,1.4541,1.4565,1.461,1.4627,1.4641,1.4679,1.4694,1.4715,1.4745,1.4757,1.4785,1.4813,1.4837,1.4852,1.4877,1.4896,1.4905,1.4901,1.4899,1.4898,1.4898,1.491,1.4909,1.492,1.492,1.492,0,0,1.453,1.4563,1.4575,1.4621,1.4645,1.4668,1.4689,1.4711,1.4728,1.476,1.4786,1.4807,1.484,1.4862,1.4873,1.4879,1.4897,1.4897,1.4896,1.4897,1.491,1.4909,1.4908,1.492,1.492,1.492,0,0,1.4522,1.4549,1.4567,1.4591,1.4629,1.4654,1.4658,1.4701,1.4717,1.4743,1.4767,1.4787,1.4828,1.4851,1.4868,1.4868,1.4885,1.4875,1.4865,1.4876,1.4875,1.4874,1.4875,1.4874,1.4876,1.4876,1.4876,0,1.4503,1.454,1.4573,1.4595,1.4614,1.4646,1.4664,1.4685,1.4728,1.474,1.4746,1.4799,1.4823,1.4851,1.4852,1.4864,1.4869,1.4871,1.4873,1.4872,1.4872,1.4873,1.4873,1.4874,1.4874,1.4875,1.4875,0,1.4515,1.454,1.4549,1.4592,1.4612,1.4632,1.4667,1.4683,1.4702,1.4726,1.4752,1.4782,1.4814,1.4822,1.4839,1.4852,1.4855,1.4866,1.4877,1.4869,1.487,1.4871,1.4872,1.4873,1.4873,1.4874,0,0,1.4484,1.4546,1.4549,1.4569,1.4613,1.4633,1.4653,1.4686,1.4699,1.4727,1.4745,1.4779,1.4791,1.481,1.483,1.484,1.4839,1.4851,1.4852,1.4847,1.4855,1.4846,1.4846,1.485,1.485,1.4851,1.4852,0,1.4482,1.4523,1.4554,1.4582,1.4606,1.4636,1.4654,1.4682,1.4705,1.4727,1.4751,1.4775,1.4788,1.48,1.4811,1.4837,1.4841,1.4837,1.4866,1.4867,1.4857,1.4846,1.4837,1.4837,1.4853,1.4853,1.4853,0,1.4486,1.4515,1.4547,1.4589,1.46,1.4616,1.4648,1.4669,1.4701,1.4717,1.4739,1.4761,1.4783,1.4791,1.4821,1.4818,1.4832,1.4846,1.4847,1.4851,1.4859,1.485,1.4838,1.4838,1.4854,1.4854,1.4854,0,1.4461,1.4508,1.4533,1.4549,1.4599,1.461,1.4631,1.4664,1.4681,1.4709,1.4721,1.475,1.4766,1.4787,1.4816,1.4819,1.4843,1.4854,1.4856,1.4855,1.4859,1.4859,1.4849,1.4868,1.4868,1.4868,1.4868,0,1.4456,1.4474,1.4523,1.4538,1.4559,1.4594,1.4613,1.4636,1.4665,1.4684,1.4711,1.4729,1.4765,1.4787,1.4809,1.4831,1.4837,1.485,1.4856,1.4848,1.4846,1.4857,1.4858,1.4868,1.4868,1.4868,1.4868,0,1.4432,1.4466,1.4495,1.454,1.4552,1.4565,1.4604,1.4619,1.4643,1.4668,1.4675,1.4713,1.474,1.477,1.4806,1.4821,1.4841,1.4849,1.4831,1.4834,1.4835,1.4835,1.4832,1.4834,1.4851,1.485,1.485,0,1.4427,1.4441,1.4489,1.4505,1.4526,1.4551,1.457,1.4604,1.4622,1.466,1.4671,1.47,1.4725,1.4766,1.4795,1.4823,1.4832,1.483,1.4836,1.4828,1.4832,1.4831,1.4833,1.4827,1.4827,1.4827,1.4827,0,1.4414,1.443,1.4457,1.449,1.4512,1.4539,1.4567,1.4578,1.4617,1.4636,1.4665,1.4685,1.4722,1.4751,1.4782,1.4802,1.4821,1.4824,1.4826,1.4818,1.4807,1.4814,1.4826,1.4824,1.4824,1.4825,1.4825,1.4825,1.4399,1.4414,1.445,1.4479,1.4504,1.453,1.4547,1.4574,1.4599,1.4634,1.4652,1.4681,1.4712,1.4757,1.4776,1.4798,1.4804,1.4807,1.4807,1.4808,1.4806,1.4804,1.4803,1.4804,1.4804,1.4804,1.4804,0,1.4388,1.4413,1.444,1.4479,1.4502,1.4519,1.4551,1.4568,1.4593,1.4622,1.4647,1.468,1.4707,1.4739,1.4769,1.478,1.4789,1.4786,1.4786,1.479,1.4798,1.4794,1.4778,1.4778,1.4778,1.4778,1.4778,1.4778,1.4385,1.4411,1.4432,1.447,1.4495,1.4524,1.4541,1.4564,1.4588,1.4624,1.4648,1.4669,1.4699,1.4731,1.4757,1.4765,1.4775,1.477,1.4781,1.4787,1.479,1.4792,1.4788,1.4771,1.4771,1.4771,1.4771,1.4771]}]]